Погода в Туринске

Россия / Свердловская область     58°02′21″N   63°41′53″E
темп.,
°C
ветер,
м/с
пор.,
м/с
влажн.,
%
обл.,
%
осадки,
мм/ч
давл.,
гПа
погр.,
м
5 марта, пт
пт523:00−11юз349179 0.4 99682
02:00−13ю33940 0.0 99543
05:00−11ююв499550 0.0 993223
08:00−8ююв4895100 1.0 990408
11:00−4юз1594100 1.6 991399
14:00−2з5887100 0.3 993981
17:00−2зюз5987100 0.7 995792
20:00−6зюз4128899 0.1 996411
6 марта, сб
сб623:00−9зюз4109079 0.1 998245
02:00−12з410920 0.0 999246
05:00−13з5129120 0.0 1001411
08:00−14з5138528 0.0 1002414
11:00−10з6118514 0.0 1003664
14:00−8з698169 0.1 10041222
17:00−9з598485 0.3 10051186
20:00−12з41189100 0.1 1006546
7 марта, вс
вс723:00−14з41189100 0.1 1008384
02:00−18з489322 0.0 1009162
05:00−20зюз239511 0.0 101128
08:00−21юз23960 0.0 101126
11:00−14ююз23870 0.0 1011309
14:00−10ю228085 0.0 1008573
17:00−11юв128693 0.0 1007397
20:00−15с1292100 0.0 100520
8 марта, пн
пн823:00−16ссз239699 0.0 100543
02:00−18сз3497100 0.1 100579
05:00−19зсз3410091 0.1 100668
08:00−21з2310095 0.0 100742
11:00−15зюз238993 0.0 1007304
14:00−11ююз3484100 0.0 1006597
17:00−11ю4687100 0.0 1005613
20:00−12ююв3895100 0.3 1005328
9 марта, вт
вт923:00−13ююв369699 0.5 1004159
02:00−15юв239795 0.1 100436
05:00−16ю129995 0.2 100520
08:00−15ююв239893 0.0 100469
11:00−9в479396 0.1 999318
14:00−6в61194100 1.4 995672
17:00−7ююз61193100 4.5 995778
20:00−10сз71391100 0.4 999640